Погода в Вилянах

Латвия     56°32′59″N   26°55′33″E
темп.,
°C
ветер,
м/с
пор.,
м/с
влажн.,
%
обл.,
%
осадки,
мм/ч
давл.,
гПа
погр.,
м
7 марта, вс
вс723:000зюз101774100 0.0 10061086
02:00+1зюз101779100 0.1 10011224
05:00−3ссз81388100 2.6 9991006
08:00−3юз5885100 3.1 998424
11:00−1зсз121757100 2.0 9982373
14:00−1зсз9155295 2.2 9992170
17:00−2зсз8146397 0.0 9991452
20:00−4з7129095 0.1 1000882
8 марта, пн
пн823:00−4зсз61085100 0.4 1001826
02:00−4сз4891100 0.8 1003596
05:00−7ссз5118467 0.1 1005573
08:00−7ссз698383 0.1 1008958
11:00−6с6874100 0.1 1011902
14:00−5с5770100 0.1 1013982
17:00−5ссз477393 0.0 1015851
20:00−7ссз388377 0.0 1017376
9 марта, вт
вт923:00−8ссв239258 0.0 101891
02:00−10ссз229430 0.0 102060
05:00−10сз12929 0.0 102022
08:00−9з118543 0.0 102187
11:00−6юз2367100 0.0 1021451
14:00−3юз466199 0.0 1020709
17:00−3юз4869100 0.0 1019498
20:00−4юз4972100 0.0 1019269
10 марта, ср
ср1023:00−4зюз51173100 0.0 1018371
02:00−4зюз51180100 0.0 1018380
05:00−4зюз41082100 0.0 1018427
08:00−4юз5988100 0.1 1019403
11:00−3зюз4693100 1.1 1020462
14:00−1зюз2490100 2.0 1020434
17:00−2всв4694100 0.8 1019295
20:00−5всв4795100 2.9 1020354
11 марта, чт
чт1123:00−6св4694100 0.6 1020286
02:00−8ссв349698 0.8 1020178
05:00−10всв239692 0.1 101992
08:00−9вюв119382 0.1 101968
11:00−3ю358384 0.0 1017577
14:00−1ю587291 0.0 1015988
17:00−1ююв51273100 0.0 1012549
20:00−2ю81670100 0.0 1008825